www.pogodaiklimat.ru
ПОГОДА в Меномини
Время
и дата
12:56 23.10
13:56 23.10
14:46 23.10
14:56 23.10
15:56 23.10
16:14 23.10
16:56 23.10
17:23 23.10
17:56 23.10
18:03 23.10
18:56 23.10
19:08 23.10
19:56 23.10
20:56 23.10
21:56 23.10
22:56 23.10
23:56 23.10
00:56 24.10
01:56 24.10
02:56 24.10
03:56 24.10
04:56 24.10
05:56 24.10
06:56 24.10
07:56 24.10
08:56 24.10
09:56 24.10
10:56 24.10
11:56 24.10
12:56 24.10
13:37 24.10
13:45 24.10
13:56 24.10
14:56 24.10
15:56 24.10
16:56 24.10
17:56 24.10
18:56 24.10
19:56 24.10
20:56 24.10
21:56 24.10
22:56 24.10
23:56 24.10
00:56 25.10
01:56 25.10
02:56 25.10
03:56 25.10
04:56 25.10
Ветер
(напр.,м/с)
Видим. Явления Облачность Т
(С)
Тd
(С)
f
(%)
Тe
(С)
Тes
(С)
Комфортность P
(гПа)
Po
(гПа)
Тmin
(С)
Tmax
(С)
R
(мм)
R24
(мм)
S
(см)
С 2 16 км слабый дождь 10/10 480 м +4.4 +2.8 89 0 0 1015.1 992.0 +3.9 +5.0
С 3
{4}
16 км 10/10 600 м +4.4 +2.2 86 -1 -1 1015.7 992.3
СЗ 3
{5}
14 км слабый дождь 10/10 420 м +4.0 +2.0 87 -2 -2 994.3
СЗ 3
{4}
13 км слабый дождь 10/10 420 м +3.3 +2.2 92 -3 -3 1017.7 994.3
С 4
{6}
16 км слабый дождь 10/10 420 м +2.8 +0.6 85 -4 -4 1018.2 994.6 0.5
С 4
{5}
16 км 10/10 480 м +3.0 +1.0 87 -4 -4 995.0
С 3
{4}
16 км 8/8 540 м
[средняя]
+2.2 -0.6 82 -4 -3 1019.3 996.0
С 2
{4}
16 км 5/5 540 м +2.0 -1.0 80 -3 -1 996.0
СЗ 2 16 км 5/5 720 м +1.7 -0.6 85 -3 -1 1019.9 996.6
С 2 16 км 8/8 720 м +2.0 -1.0 80 -3 -3 996.6
СЗ 1 16 км 8/8 780 м +1.7 -1.1 82 -3 -2 1021.0 997.6 +1.7 +4.4 0.5
СЗ 1 16 км 5/5 780 м +1.0 -1.0 86 -3 -1 997.6
СЗ 1 16 км ясно +1.1 -1.1 85 -2 +3 1022.4 999.0
нст 1 16 км ясно +0.6 -1.7 85 -3 +1 1023.0 999.6
нст 1 16 км ясно 0.0 -1.7 88 -4 -2 1024.2 1000.6
СЗ 1 16 км ясно -0.6 -2.2 89 -4 -4 1024.4 1000.6
штиль 0 16 км ясно -1.1 -2.2 92 -2 -2 1024.8 1001.3
штиль 0 16 км 10/10 1020 м -1.1 -2.2 92 -2 -2 1025.0 1001.3 -1.7 +1.7
штиль 0 16 км 8/8 1290 м -2.2 -3.3 92 -3 -3 1025.2 1001.6
штиль 0 16 км 10/10 1350 м -1.1 -2.2 92 -2 -2 1025.4 1001.6
штиль 0 16 км 10/10 1350 м -0.6 -1.7 92 -2 -2 1025.3 1001.6
ЮЗ 1 16 км 10/10 1410 м -0.6 -1.1 96 -5 -5 1025.2 1001.6
З 1 16 км 10/10 1020 м 0.0 -1.1 92 -4 -4 1025.8 1001.9
З 1 16 км 10/10 1470 м -0.6 -1.7 92 -4 -4 1025.7 1001.9 -2.2 0.5
З 1 16 км 10/10 1470 м 0.0 -1.7 88 -4 -4 1025.9 1001.9
нст 1 16 км 10/10 1470 м +0.6 -1.1 88 -3 -3 1026.5 1002.6
нст 1 16 км 10/10 1650 м +1.7 -2.2 75 -1 -1 1026.9 1002.9
нст 1 16 км 10/10 1650 м +2.8 -1.7 72 -1 -1 1026.4 1002.6
нст 1 16 км 10/10 930 м +2.8 -3.9 61 -1 -1 1025.8 1001.9
З 1 16 км 10/10 1080 м +3.3 -4.4 57 0 0 1025.3 1001.6 -0.6 +3.9
СЗ 2 16 км 10/10 840 м +2.0 -3.0 69 -3 -3 1000.9
С 2 16 км 10/10 840 м +3.0 -3.0 65 -1 -1 1001.3
С 2 16 км 10/10 840 м +2.8 -2.8 67 -2 -2 1024.9 1001.3
нст 1 16 км 10/10 1020 м +2.8 -3.9 61 -1 -1 1024.7 1000.9
С 2 16 км 10/10 1140 м +2.2 -5.0 59 -2 -2 1024.5 1000.6
С 1 16 км 10/10 1260 м +2.2 -6.1 54 0 0 1025.1 1001.3
С 1 16 км ясно +1.1 -6.7 56 -3 -2 1025.5 1001.6
С 1 16 км 10/0 3300 м
[Ac]
+0.6 -6.7 58 -2 -2 1026.3 1002.6 +0.6 +3.3
С 1 16 км ясно 0.0 -6.7 61 -3 -3 1026.4 1002.6
СЗ 1 16 км ясно -0.6 -6.1 66 -4 -4 1026.7 1002.6
нст 1 16 км ясно -1.1 -6.1 69 -5 -5 1026.7 1002.9
СЗ 1 16 км ясно -1.1 -6.1 69 -5 -5 1026.9 1002.9
нст 1 16 км ясно -1.1 -5.6 71 -5 -5 1026.9 1002.9
СЗ 1 16 км ясно -1.1 -5.0 75 -6 -6 1026.6 1002.6 -1.1 +0.6
СЗ 1 16 км ясно -1.7 -5.0 78 -7 -7 1026.8 1002.9
СЗ 1 16 км ясно -1.7 -5.0 78 -5 -5 1026.9 1002.9
СЗ 1 16 км 2/0 3600 м
[Ac]
-1.7 -4.4 82 -6 -6 1026.5 1002.6
СЗ 1 16 км 10/0 3300 м
[Ac]
-1.7 -4.4 82 -6 -6 1026.6 1002.6
Местоположение метеостанции Menominee-Marinette Twin County Airport: широта 45.1333 долгота -87.6333 высота над уровнем моря 191 м.
В архиве по умолчанию представлена погода в Меномини за последние 1-2 суток. Обновление информации о фактической погоде в базе происходит ежечасно! Архивные данные за месяц целиком и за предыдущие месяцы Вы можете получить, выбрав интересующий диапазон дат из раскрывающегося списка и нажав кнопку "Ввод!".
Внимание! Архив погоды МЕТАР в базе сайта по станциям, не включенным в климатический монитор, хранится не более 60 дней. Нет смысла пытаться выбрать более раннюю дату.
*Определитесь, кто Вы:
Внимание! Время в таблицах - местное (без учета летнего времени). Для получения всемирного времени необходимо вычесть поправку, которая равна -5 ч.
Смотрите также архив погоды в соседних городах и на ближайших метеорологических станциях:
Партнеры нашего сайта:      
Пояснения к столбцам:
  • Ветер - указаны скорость ветра в м/с - средняя за 10 мин, порывы в срок и между сроками (в фигурных скобках) и направление, откуда дует ветер: С - северный,
  • СВ - северо-восточный, В - восточный, ЮВ - юго-восточный, Ю - южный, ЮЗ - юго-западный, З - западный, СЗ - северо-западный.
  • Видимость - горизонтальная дальность видимости в метрах или километрах. При видимости от 1 до 10 км при отсутствии осадков обычно наблюдается дымка, при ухудшении видимости до 1 км и менее - туман. В сухую погоду видимость может ухудшаться дымом, пылью или мглою.
  • Явления - указаны атмосферные явления, наблюдавшиеся в срок или в последний час перед сроком; фигурными скобками обозначены явления, наблюдавшиеся между сроками (за 1-3 часа до срока); квадратными скобками обозначены град или гололедные отложения с указанием их диаметра в мм.
  • Облачность - указаны через наклонную черту общая и нижняя облачность в баллах и высота нижней границы облаков в метрах; квадратными скобками обозначены формы облаков: Ci - перистые, Cs - перисто-слоистые, Cc - перисто-кучевые, Ac - высококучевые, As - высокослоистые, Sc - слоисто-кучевые, Ns - слоисто-дождевые, Cu - кучевые, Cb - кучево-дождевые. Подробнее классификацию облаков см. в Атласе облаков (PDF).
  • T - Температура воздуха - температура, измеренная на высоте 2 м над землей.
  • Td - Температура точки росы - температура, при понижении до которой содержащийся в воздухе водяной пар достигнет насыщения.
  • f - Относительная влажность воздуха - влажноcть воздуха, измеренная на высоте 2 м над землей.
  • Te - Эффективная температура - температура, которую ощущает одетый по сезону человек в тени. Характеристика душности погоды. При расчете учитывается влияние влажности воздуха и скорости ветра на теплоощущения человека.
  • Tes - Эффективная температура на солнце - температура, которую ощущает человек, с поправкой на солнечный нагрев. Характеристика знойности погоды. Зависит от высоты солнца над горизонтом, облачности и скорости ветра. Ночью, в пасмурную погоду, а также при ветре 12 м/с и более поправка равна нулю.
  • P - Атмосферное давление - приведенное к уровню моря атмосферное давление.
  • Po - Атмосферное давление - измеренное на уровне метеостанции атмосферное давление.
  • Tmin - Минимальная температура - минимум температуры воздуха на высоте 2 м над землей.
  • Tmax - Максимальная температура - максимум температуры воздуха на высоте 2 м над землей.
  • R - Количество осадков - Количество выпавших осадков за период времени, мм. При наведении курсора мыши на число - период времени, за который выпало указанное количество осадков.
  • R24 - Количество осадков - Количество выпавших осадков за 24 часа, мм.
  • S - Снежный покров - Высота снежного покрова, см. При наведении курсора мыши на число - состояние снежного покрова и степень покрытия местности в баллах.